Time,TemperatureF,DewpointF,PressureIn,WindDirection,WindDirectionDegrees,WindSpeedMPH,WindSpeedGustMPH,Humidity,HourlyPrecipIn,Conditions,Clouds,dailyrainin,SoftwareType,DateUTC
2013-09-06 00:11:00,58.0,56.0,-100.00,SW,225,3.0,6.0,93,-99.99,,,-99.99,,2013-09-06 07:11:00,
2013-09-06 00:23:00,58.0,56.0,-100.00,SW,225,3.0,5.0,92,-99.99,,,-99.99,,2013-09-06 07:23:00,
2013-09-06 00:42:00,59.0,56.0,-100.00,SW,225,3.0,5.0,93,-99.99,,,-99.99,,2013-09-06 07:42:00,
2013-09-06 00:52:00,59.0,57.0,-100.00,West,270,3.0,4.0,93,-99.99,,,-99.99,,2013-09-06 07:52:00,
2013-09-06 01:12:00,59.0,56.0,-100.00,SW,225,1.0,3.0,92,-99.99,,,-99.99,,2013-09-06 08:12:00,
2013-09-06 01:22:00,59.0,57.0,-100.00,West,270,1.0,3.0,92,-99.99,,,-99.99,,2013-09-06 08:22:00,
2013-09-06 01:42:00,59.0,57.0,-100.00,SW,225,4.0,7.0,92,-99.99,,,-99.99,,2013-09-06 08:42:00,
2013-09-06 01:52:00,59.0,57.0,-100.00,West,270,5.0,9.0,92,-99.99,,,-99.99,,2013-09-06 08:52:00,
2013-09-06 02:11:00,59.0,57.0,-100.00,West,270,2.0,4.0,92,-99.99,,,-99.99,,2013-09-06 09:11:00,
2013-09-06 02:22:00,59.0,57.0,-100.00,West,270,1.0,3.0,92,-99.99,,,-99.99,,2013-09-06 09:22:00,
2013-09-06 02:43:00,59.0,57.0,-100.00,SW,225,4.0,5.0,92,-99.99,,,-99.99,,2013-09-06 09:43:00,
2013-09-06 02:53:00,59.0,57.0,-100.00,West,270,2.0,3.0,92,-99.99,,,-99.99,,2013-09-06 09:53:00,
2013-09-06 03:12:00,59.0,57.0,-100.00,West,270,3.0,4.0,92,-99.99,,,-99.99,,2013-09-06 10:12:00,
2013-09-06 03:23:00,59.0,57.0,-100.00,SW,225,2.0,3.0,92,-99.99,,,-99.99,,2013-09-06 10:23:00,
2013-09-06 03:42:00,59.0,57.0,-100.00,SW,225,4.0,7.0,92,-99.99,,,-99.99,,2013-09-06 10:42:00,
2013-09-06 03:53:00,59.0,57.0,-100.00,SW,225,3.0,4.0,92,-99.99,,,-99.99,,2013-09-06 10:53:00,
2013-09-06 04:11:00,59.0,57.0,-100.00,SW,225,4.0,6.0,92,-99.99,,,-99.99,,2013-09-06 11:11:00,
2013-09-06 04:22:00,59.0,57.0,-100.00,SW,225,3.0,5.0,92,-99.99,,,-99.99,,2013-09-06 11:22:00,
2013-09-06 04:42:00,59.0,57.0,-100.00,SW,225,3.0,4.0,92,-99.99,,,-99.99,,2013-09-06 11:42:00,
2013-09-06 04:52:00,59.0,57.0,-100.00,SW,225,4.0,6.0,92,-99.99,,,-99.99,,2013-09-06 11:52:00,
2013-09-06 05:12:00,59.0,57.0,-100.00,SW,225,3.0,5.0,92,-99.99,,,-99.99,,2013-09-06 12:12:00,
2013-09-06 05:21:00,59.0,57.0,-100.00,West,270,3.0,4.0,92,-99.99,,,-99.99,,2013-09-06 12:21:00,
2013-09-06 05:42:00,59.0,56.0,-100.00,SW,225,1.0,1.0,92,-99.99,,,-99.99,,2013-09-06 12:42:00,
2013-09-06 05:52:00,59.0,56.0,-100.00,SW,225,1.0,3.0,92,-99.99,,,-99.99,,2013-09-06 12:52:00,
2013-09-06 06:11:00,59.0,56.0,-100.00,SW,225,1.0,2.0,92,-99.99,,,-99.99,,2013-09-06 13:11:00,
2013-09-06 06:22:00,59.0,56.0,-100.00,SW,225,2.0,4.0,92,-99.99,,,-99.99,,2013-09-06 13:22:00,
2013-09-06 06:42:00,59.0,56.0,-100.00,West,270,0.0,1.0,92,-99.99,,,-99.99,,2013-09-06 13:42:00,
2013-09-06 06:52:00,58.0,56.0,-100.00,SW,225,1.0,1.0,92,-99.99,,,-99.99,,2013-09-06 13:52:00,
2013-09-06 07:11:00,58.0,56.0,-100.00,North,-999,0.0,0.0,92,-99.99,,,-99.99,,2013-09-06 14:11:00,
2013-09-06 07:22:00,58.0,56.0,-100.00,North,-999,0.0,0.0,92,-99.99,,,-99.99,,2013-09-06 14:22:00,
2013-09-06 07:42:00,58.0,56.0,-100.00,North,-999,0.0,0.0,92,-99.99,,,-99.99,,2013-09-06 14:42:00,
2013-09-06 07:52:00,58.0,56.0,-100.00,SW,225,2.0,3.0,92,-99.99,,,-99.99,,2013-09-06 14:52:00,
2013-09-06 08:11:00,58.0,56.0,-100.00,West,270,0.0,1.0,92,-99.99,,,-99.99,,2013-09-06 15:11:00,
2013-09-06 08:22:00,58.0,56.0,-100.00,North,-999,0.0,0.0,92,-99.99,,,-99.99,,2013-09-06 15:22:00,
2013-09-06 08:43:00,58.0,56.0,-100.00,SW,225,1.0,2.0,92,-99.99,,,-99.99,,2013-09-06 15:43:00,
2013-09-06 08:53:00,58.0,56.0,-100.00,West,270,2.0,4.0,92,-99.99,,,-99.99,,2013-09-06 15:53:00,
2013-09-06 09:13:00,59.0,56.0,-100.00,SW,225,2.0,4.0,92,-99.99,,,-99.99,,2013-09-06 16:13:00,
2013-09-06 09:24:00,58.0,56.0,-100.00,SW,225,2.0,3.0,92,-99.99,,,-99.99,,2013-09-06 16:24:00,
2013-09-06 09:42:00,59.0,56.0,-100.00,West,270,1.0,3.0,91,-99.99,,,-99.99,,2013-09-06 16:42:00,
2013-09-06 09:53:00,59.0,56.0,-100.00,SW,225,3.0,7.0,91,-99.99,,,-99.99,,2013-09-06 16:53:00,
2013-09-06 10:13:00,59.0,56.0,-100.00,SW,225,2.0,4.0,91,-99.99,,,-99.99,,2013-09-06 17:13:00,
2013-09-06 10:24:00,59.0,56.0,-100.00,SW,225,3.0,4.0,90,-99.99,,,-99.99,,2013-09-06 17:24:00,
2013-09-06 10:43:00,59.0,56.0,-100.00,West,270,3.0,6.0,90,-99.99,,,-99.99,,2013-09-06 17:43:00,
2013-09-06 10:53:00,60.0,57.0,-100.00,SW,225,2.0,4.0,90,-99.99,,,-99.99,,2013-09-06 17:53:00,
2013-09-06 11:12:00,60.0,57.0,-100.00,West,270,1.0,4.0,89,-99.99,,,-99.99,,2013-09-06 18:12:00,
2013-09-06 11:22:00,60.0,56.0,-100.00,SW,225,4.0,5.0,88,-99.99,,,-99.99,,2013-09-06 18:22:00,
2013-09-06 11:42:00,60.0,56.0,-100.00,SW,225,3.0,4.0,88,-99.99,,,-99.99,,2013-09-06 18:42:00,
2013-09-06 11:52:00,61.0,57.0,-100.00,SW,225,3.0,5.0,87,-99.99,,,-99.99,,2013-09-06 18:52:00,
2013-09-06 12:11:00,61.0,56.0,-100.00,SW,225,3.0,6.0,84,-99.99,,,-99.99,,2013-09-06 19:11:00,
2013-09-06 12:22:00,62.0,55.0,-100.00,West,270,3.0,10.0,80,-99.99,,,-99.99,,2013-09-06 19:22:00,
2013-09-06 12:42:00,62.0,55.0,-100.00,SW,225,3.0,6.0,79,-99.99,,,-99.99,,2013-09-06 19:42:00,
2013-09-06 12:52:00,63.0,56.0,-100.00,SW,225,1.0,2.0,79,-99.99,,,-99.99,,2013-09-06 19:52:00,
2013-09-06 13:11:00,63.0,56.0,-100.00,North,-999,0.0,0.0,79,-99.99,,,-99.99,,2013-09-06 20:11:00,
2013-09-06 13:23:00,63.0,56.0,-100.00,SW,225,2.0,3.0,79,-99.99,,,-99.99,,2013-09-06 20:23:00,
2013-09-06 13:42:00,64.0,56.0,-100.00,South,180,1.0,5.0,76,-99.99,,,-99.99,,2013-09-06 20:42:00,
2013-09-06 13:52:00,63.0,54.0,-100.00,West,270,1.0,2.0,73,-99.99,,,-99.99,,2013-09-06 20:52:00,
2013-09-06 14:12:00,63.0,53.0,-100.00,SW,225,3.0,6.0,72,-99.99,,,-99.99,,2013-09-06 21:12:00,
2013-09-06 14:22:00,63.0,55.0,-100.00,SW,225,1.0,1.0,73,-99.99,,,-99.99,,2013-09-06 21:22:00,
2013-09-06 14:43:00,63.0,54.0,-100.00,SW,225,2.0,3.0,71,-99.99,,,-99.99,,2013-09-06 21:43:00,
2013-09-06 14:54:00,63.0,54.0,-100.00,SW,225,2.0,3.0,71,-99.99,,,-99.99,,2013-09-06 21:54:00,
2013-09-06 15:13:00,63.0,52.0,-100.00,West,270,4.0,8.0,69,-99.99,,,-99.99,,2013-09-06 22:13:00,
2013-09-06 15:44:00,63.0,53.0,-100.00,SW,225,1.0,3.0,70,-99.99,,,-99.99,,2013-09-06 22:44:00,
2013-09-06 15:53:00,63.0,53.0,-100.00,SW,225,1.0,3.0,70,-99.99,,,-99.99,,2013-09-06 22:53:00,
2013-09-06 16:23:00,62.0,54.0,-100.00,West,270,3.0,6.0,73,-99.99,,,-99.99,,2013-09-06 23:23:00,
2013-09-06 16:42:00,62.0,54.0,-100.00,West,270,3.0,5.0,75,-99.99,,,-99.99,,2013-09-06 23:42:00,
2013-09-06 16:52:00,62.0,55.0,-100.00,SW,225,2.0,4.0,77,-99.99,,,-99.99,,2013-09-06 23:52:00,
2013-09-06 17:12:00,62.0,54.0,-100.00,West,270,4.0,6.0,77,-99.99,,,-99.99,,2013-09-07 00:12:00,
2013-09-06 17:22:00,61.0,55.0,-100.00,SW,225,3.0,5.0,80,-99.99,,,-99.99,,2013-09-07 00:22:00,
2013-09-06 17:42:00,61.0,56.0,-100.00,SW,225,2.0,3.0,82,-99.99,,,-99.99,,2013-09-07 00:42:00,
2013-09-06 17:52:00,61.0,56.0,-100.00,West,270,3.0,5.0,83,-99.99,,,-99.99,,2013-09-07 00:52:00,
2013-09-06 18:12:00,61.0,57.0,-100.00,West,270,2.0,3.0,84,-99.99,,,-99.99,,2013-09-07 01:12:00,
2013-09-06 18:21:00,61.0,57.0,-100.00,West,270,2.0,3.0,84,-99.99,,,-99.99,,2013-09-07 01:21:00,
2013-09-06 18:42:00,61.0,56.0,-100.00,West,270,1.0,1.0,84,-99.99,,,-99.99,,2013-09-07 01:42:00,
2013-09-06 18:53:00,61.0,56.0,-100.00,West,270,1.0,3.0,85,-99.99,,,-99.99,,2013-09-07 01:53:00,
2013-09-06 19:12:00,61.0,57.0,-100.00,West,270,3.0,4.0,86,-99.99,,,-99.99,,2013-09-07 02:12:00,
2013-09-06 19:23:00,61.0,56.0,-100.00,SW,225,1.0,1.0,86,-99.99,,,-99.99,,2013-09-07 02:23:00,
2013-09-06 19:42:00,61.0,57.0,-100.00,North,-999,0.0,0.0,86,-99.99,,,-99.99,,2013-09-07 02:42:00,
2013-09-06 19:52:00,61.0,56.0,-100.00,North,-999,0.0,0.0,86,-99.99,,,-99.99,,2013-09-07 02:52:00,
2013-09-06 20:11:00,61.0,57.0,-100.00,North,-999,0.0,0.0,87,-99.99,,,-99.99,,2013-09-07 03:11:00,
2013-09-06 20:23:00,60.0,56.0,-100.00,North,-999,0.0,0.0,87,-99.99,,,-99.99,,2013-09-07 03:23:00,
2013-09-06 20:44:00,60.0,56.0,-100.00,SW,225,1.0,1.0,88,-99.99,,,-99.99,,2013-09-07 03:44:00,
2013-09-06 20:55:00,60.0,56.0,-100.00,SW,225,2.0,3.0,88,-99.99,,,-99.99,,2013-09-07 03:55:00,
2013-09-06 21:14:00,60.0,56.0,-100.00,West,270,0.0,1.0,89,-99.99,,,-99.99,,2013-09-07 04:14:00,
2013-09-06 21:23:00,59.0,56.0,-100.00,SW,225,3.0,3.0,89,-99.99,,,-99.99,,2013-09-07 04:23:00,
2013-09-06 21:43:00,59.0,56.0,-100.00,West,270,1.0,1.0,90,-99.99,,,-99.99,,2013-09-07 04:43:00,
2013-09-06 21:54:00,59.0,56.0,-100.00,West,270,1.0,1.0,90,-99.99,,,-99.99,,2013-09-07 04:54:00,
2013-09-06 22:13:00,59.0,56.0,-100.00,North,-999,0.0,0.0,90,-99.99,,,-99.99,,2013-09-07 05:13:00,
2013-09-06 22:23:00,59.0,56.0,-100.00,North,-999,0.0,0.0,91,-99.99,,,-99.99,,2013-09-07 05:23:00,
2013-09-06 22:42:00,58.0,56.0,-100.00,North,-999,0.0,0.0,91,-99.99,,,-99.99,,2013-09-07 05:42:00,
2013-09-06 22:52:00,58.0,55.0,-100.00,North,-999,0.0,0.0,91,-99.99,,,-99.99,,2013-09-07 05:52:00,
2013-09-06 23:13:00,58.0,55.0,-100.00,North,-999,0.0,0.0,91,-99.99,,,-99.99,,2013-09-07 06:13:00,
2013-09-06 23:21:00,57.0,55.0,-100.00,North,-999,0.0,0.0,91,-99.99,,,-99.99,,2013-09-07 06:21:00,
2013-09-06 23:42:00,57.0,54.0,-100.00,North,-999,0.0,0.0,91,-99.99,,,-99.99,,2013-09-07 06:42:00,
2013-09-06 23:52:00,56.0,54.0,-100.00,North,-999,0.0,0.0,91,-99.99,,,-99.99,,2013-09-07 06:52:00,